Content
SEND FEEDBACK

Daily
Averages
Monthly
Summary
United States of America

ASATDAS, GUAM


Home > North America > United States > Guam
Elevation: 612 feet     Latitude: 13 35N     Longitude: 144 56E

WEATHER
 
SELECT A DAY
Number of Records: 213,810;   Date Range: 1/1/95 - 10/21/14
 
SHARE

PRINT THIS DATA

[ ← Previous Day ]
WEATHER ALMANAC - AUGUST 15, 2014
[ Next Day → ]
[ °C ]   °F
Weather ElementAverageHighLow
Temperature81.8 °F87.1 °F (10:54 am)78.1 °F (1:54 am)
Dewpoint75.2 °F78.1 °F (10:54 am)73.9 °F (2:54 pm)
Humidity80.8 %90 % (9:54 am)67 % (10:54 am)
Barometer29.88 in29.92 in (11:40 am)29.83 in (2:54 am)
Wind Speed6.3 mph13.8 mph (6:54 pm)
Wind Gust19.6 mph (6:54 pm)
Weather ElementAverage
Visibility9.9 mi
Wind DirectionE (95 °)

Weather ElementTotal
Precipitation---
Cooling Degree Days17.6 (Base 65)
Growing Degree Days32.6 (Base 50)
Averaged from 26 records on August 15, 2014
WEATHER CONDITIONS BREAKOUT
WIND DIRECTION BREAKOUT
WEATHER BY HOUR - AUGUST 15, 2014
[ °C ]   °F
Local TimeTemperatureDewpointHumidityBarometerVisibilityWind DirectionWind SpeedGust SpeedPrecipitationEventsConditions
12:54 AM79.0 °F75.0 °F88 %29.88 in10.0 miESE (110°)4.6 mphClear
1:54 AM78.1 °F73.9 °F87 %29.86 in10.0 miEast (90°)3.5 mphClear
2:54 AM79.0 °F75.0 °F88 %29.86 in10.0 miCalmClear
3:54 AM78.1 °F73.9 °F87 %29.85 in10.0 miCalmClear
4:54 AM78.1 °F73.9 °F87 %29.85 in10.0 miESE (110°)4.6 mphClear
5:54 AM78.1 °F73.9 °F87 %29.86 in10.0 miEast (90°)4.6 mphClear
6:54 AM78.1 °F75.0 °F90 %29.88 in10.0 miCalmClear
7:54 AM81.0 °F75.9 °F85 %29.90 in10.0 miSE (140°)3.5 mphScattered Clouds
8:54 AM82.9 °F75.0 °F77 %29.90 in10.0 miESE (110°)10.4 mphScattered Clouds
9:24 AM82.4 °F75.2 °F79 %29.92 in10.0 miESE (110°)9.2 mphMostly Cloudy
9:46 AM84.2 °F75.2 °F74 %29.92 in10.0 miESE (110°)10.4 mphScattered Clouds
9:54 AM84.9 °F75.0 °F72 %29.90 in10.0 miEast (100°)10.4 mphScattered Clouds
10:54 AM84.9 °F75.0 °F72 %29.88 in10.0 miESE (110°)10.4 mph19.6 mphPartly Cloudy
11:54 AM86.0 °F73.9 °F67 %29.88 in10.0 miESE (110°)13.8 mphScattered Clouds
12:54 PM87.1 °F75.0 °F67 %29.87 in10.0 miSE (130°)12.7 mphMostly Cloudy
1:54 PM86.0 °F75.9 °F72 %29.85 in10.0 miEast (100°)11.5 mph0.00 inScattered Clouds
2:54 PM84.9 °F78.1 °F80 %29.84 in10.0 miESE (120°)9.2 mph0.00 inMostly Cloudy
3:54 PM86.0 °F75.9 °F72 %29.84 in10.0 miSE (130°)8.1 mphScattered Clouds
4:54 PM84.9 °F75.0 °F72 %29.83 in10.0 miSSE (160°)10.4 mphScattered Clouds
5:54 PM82.0 °F75.9 °F82 %29.85 in8.0 miSE (140°)12.7 mph18.4 mphScattered Clouds
6:54 PM80.1 °F75.0 °F85 %29.87 in10.0 miSE (130°)3.5 mph0.00 inMostly Cloudy
7:54 PM81.0 °F75.9 °F85 %29.88 in10.0 miEast (100°)3.5 mphScattered Clouds
8:54 PM81.0 °F75.9 °F85 %29.89 in10.0 miSE (130°)3.5 mphScattered Clouds
9:54 PM80.1 °F75.9 °F87 %29.90 in10.0 miSE (140°)3.5 mphPartly Cloudy
10:54 PM80.1 °F75.0 °F85 %29.90 in10.0 miCalmPartly Cloudy
11:54 PM78.1 °F75.0 °F90 %29.89 in10.0 miCalmPartly Cloudy
Hourly data recorded from PGUM, located miles away from Asatdas, Guam







STORIES FROM OUR PARTNERS